FENGYUN 1C DEB, 30172

Orbit data source: Space-Track

FENGYUN 1C DEB, 30172 is space debris in SSO originally from a launch on Mon, 10 May 1999 UTC launched from the Taiyaun Space Center, China (TSC). Fengyun 1C debris stems from the Chinese weather satellite Fengyun-1C, which was intentionally destroyed by a Chinese anti-satellite missile in 2007. This event dramatically increased the amount of space debris, with thousands of trackable fragments posing hazards to satellites and human spaceflight. The Fengyun 1C debris cloud has become a focal point in discussions about space sustainability and the need for international regulations to prevent the creation of new debris.

Loading next visibility...
Identifier
30172, 1999-025UD
Orbit
SSO
Country
Flag of CNCN / PRC
Related business
Manufacturer
Unknown
Mission
Spacecraft
Bus & Motor
Unknown
Mass
Unknown
Launch date (UTC)
1999-05-10 (27 years ago)
Launch vehicle
Unknown
Launch site
Taiyaun Space Center, China (TSC)
Object type
Payload
Rocket body
Debris
Shape & HBR
Unknown shape, 0.1 m
Radar Cross Section
Medium (>0.1 m² and <1 m²)

Expand to show TLE details & history
Last TLE update: 1 day ago

TLE from 1 day ago
0 FENGYUN 1C DEB
1 30172U 99025UD  26253.54106822  .00001352  00000-0  72224-3 0  9995
2 30172  99.2537 246.5612 0068246 158.9287 329.5706 14.13845901  3564
Epoch: 2026-09-10T12:59Z
TLE epoch observation values (Epoch: 2026-09-10T12:59:08.294Z)
Latitude
51.05972°
Longitude
-106.23117°
Altitude
811.956 km
Speed
7.474 km/s
True Right ascension
05h 12m 31s
True Declination
50° 53' 34"
Sunlit
Object was in daylight at epoch
Visualization orbit readout
Latitude
Unknown
Longitude
Unknown
Altitude
Unknown
Speed
Unknown
Apparent Right ascension
Unknown
Apparent Declination
Unknown
Sunlit
N/A
Visualization observer readout
Local Sidereal Time
06:15:24
Azimuth
Unknown
Elevation
Unknown
Doppler factor
Unknown
Orbital elements
Apogee altitude
892.719 km
Perigee altitude
794.15 km
Semi-major axis
7,221.571 km
Eccentricity
0.00682
Inclination
99.2537°
RAAN
246.5612°
Arg. of periapsis
158.9287°
True anomaly
329.17158°
Mean anomaly
329.5706°
Eccentric anomaly
329.37139°
Mean motion
3.53668 °/min
Orbital period
101.79 mins
BSTAR
0.00072224
Loading maneuver chart data...
Computing Atmospheric mass density...
Loading historical data...
Loading historical data...
Loading historical data...
Loading historical data...
Loading historical data...
Loading historical data...
Loading historical data...

Documentation

Showing up to 5 results
|